When you browse on this site, cookies collect data to enhance your experience and personalize the content and advertising you see.
Visit our Privacy Policy to learn more. By continuing to use the site, you agree to this use of cookies and data.

Meteo pe oră la Georgetown

Astăzi, 10 Iulie, Vineri

Timp Temperatura Precipitaţii Vânt Presiune Umiditate
00:00 +27°C° 0.2 mm 3 m/s 759 mmHg 93%
01:00 +27°C° 0.2 mm 3 m/s 759 mmHg 94%
02:00 +27°C° 0 mm 3 m/s 758 mmHg 95%
03:00 +27°C° 1.8 mm 3 m/s 758 mmHg 95%
04:00 +26°C° 1.8 mm 2 m/s 758 mmHg 94%
05:00 +26°C° 1.8 mm 2 m/s 758 mmHg 94%
06:00 +27°C° 1.4 mm 2 m/s 759 mmHg 93%
07:00 +27°C° 1.4 mm 2 m/s 759 mmHg 92%
08:00 +28°C° 0 mm 2 m/s 759 mmHg 90%
09:00 +29°C° 1.2 mm 2 m/s 759 mmHg 87%
10:00 +30°C° 1.2 mm 2 m/s 759 mmHg 83%
11:00 +31°C° 1.2 mm 2 m/s 760 mmHg 79%
12:00 +30°C° 1.3 mm 2 m/s 759 mmHg 81%
13:00 +30°C° 1.3 mm 2 m/s 758 mmHg 83%
14:00 +30°C° 1.3 mm 2 m/s 758 mmHg 85%
15:00 +29°C° 1.2 mm 2 m/s 757 mmHg 86%
16:00 +29°C° 1.2 mm 2 m/s 757 mmHg 87%
17:00 +28°C° 1.2 mm 3 m/s 757 mmHg 88%
18:00 +28°C° 0.1 mm 3 m/s 758 mmHg 90%
19:00 +27°C° 0.1 mm 3 m/s 758 mmHg 91%
20:00 +27°C° 0.1 mm 3 m/s 758 mmHg 92%
21:00 +27°C° 0.1 mm 3 m/s 759 mmHg 93%
22:00 +27°C° 0.1 mm 3 m/s 759 mmHg 93%
23:00 +26°C° 0.1 mm 3 m/s 759 mmHg 93%

Mâine, 11 Iulie, Sâmbătă

Timp Temperatura Precipitaţii Vânt Presiune Umiditate
00:00 +26°C° 1.6 mm 3 m/s 759 mmHg 93%
01:00 +26°C° 1.6 mm 3 m/s 758 mmHg 94%
02:00 +26°C° 1.6 mm 3 m/s 758 mmHg 94%
03:00 +26°C° 1.3 mm 3 m/s 758 mmHg 94%
04:00 +26°C° 1.3 mm 3 m/s 758 mmHg 94%
05:00 +26°C° 1.3 mm 3 m/s 758 mmHg 94%
06:00 +27°C° 0.9 mm 3 m/s 758 mmHg 92%
07:00 +27°C° 0.9 mm 3 m/s 758 mmHg 91%
08:00 +28°C° 0.9 mm 3 m/s 759 mmHg 89%
09:00 +30°C° 0.6 mm 3 m/s 759 mmHg 81%
10:00 +32°C° 0.6 mm 4 m/s 759 mmHg 72%
11:00 +33°C° 0.6 mm 4 m/s 759 mmHg 64%
12:00 +34°C° 0.1 mm 4 m/s 758 mmHg 63%
13:00 +34°C° 0.1 mm 4 m/s 758 mmHg 62%
14:00 +34°C° 0.1 mm 4 m/s 757 mmHg 61%
15:00 +33°C° 0 mm 4 m/s 757 mmHg 65%
16:00 +32°C° 0 mm 4 m/s 757 mmHg 69%
17:00 +30°C° 0 mm 4 m/s 756 mmHg 74%
18:00 +29°C° 0 mm 4 m/s 757 mmHg 79%
19:00 +28°C° 0 mm 4 m/s 757 mmHg 84%
20:00 +27°C° 0 mm 4 m/s 758 mmHg 89%
21:00 +27°C° 0.1 mm 4 m/s 758 mmHg 89%
22:00 +27°C° 0.1 mm 4 m/s 759 mmHg 89%
23:00 +27°C° 0.1 mm 4 m/s 759 mmHg 89%

Poimâine, 12 Iulie, Duminică

Timp Temperatura Precipitaţii Vânt Presiune Umiditate
00:00 +27°C° 0.7 mm 4 m/s 759 mmHg 91%
01:00 +27°C° 0.7 mm 4 m/s 758 mmHg 92%
02:00 +26°C° 0.7 mm 3 m/s 758 mmHg 94%
03:00 +26°C° 0.9 mm 3 m/s 758 mmHg 94%
04:00 +26°C° 0.9 mm 3 m/s 758 mmHg 94%
05:00 +26°C° 0.9 mm 3 m/s 758 mmHg 94%
06:00 +27°C° 0.7 mm 3 m/s 758 mmHg 92%
07:00 +27°C° 0.7 mm 3 m/s 759 mmHg 91%
08:00 +28°C° 0.7 mm 3 m/s 759 mmHg 90%
09:00 +29°C° 0.9 mm 3 m/s 759 mmHg 88%
10:00 +29°C° 0.9 mm 3 m/s 760 mmHg 87%
11:00 +29°C° 0.9 mm 4 m/s 760 mmHg 86%
12:00 +29°C° 0.9 mm 4 m/s 759 mmHg 86%
13:00 +29°C° 0.9 mm 4 m/s 758 mmHg 87%
14:00 +29°C° 0.9 mm 4 m/s 758 mmHg 88%
15:00 +29°C° 0.4 mm 4 m/s 758 mmHg 89%
16:00 +29°C° 0.4 mm 4 m/s 757 mmHg 89%
17:00 +28°C° 0.4 mm 3 m/s 757 mmHg 90%
18:00 +28°C° 0.1 mm 3 m/s 758 mmHg 91%
19:00 +27°C° 0.1 mm 3 m/s 758 mmHg 92%
20:00 +27°C° 0.1 mm 3 m/s 758 mmHg 93%
21:00 +27°C° 0.2 mm 3 m/s 759 mmHg 93%
22:00 +26°C° 0.2 mm 3 m/s 759 mmHg 94%
23:00 +26°C° 0.2 mm 3 m/s 759 mmHg 94%

13 Iulie, Luni

Timp Temperatura Precipitaţii Vânt Presiune Umiditate
00:00 +26°C° 0.5 mm 2 m/s 759 mmHg 94%
01:00 +26°C° 0.5 mm 2 m/s 758 mmHg 95%
02:00 +26°C° 0.5 mm 2 m/s 758 mmHg 95%
03:00 +26°C° 1.3 mm 2 m/s 758 mmHg 95%
04:00 +26°C° 1.3 mm 2 m/s 758 mmHg 95%
05:00 +26°C° 1.3 mm 2 m/s 758 mmHg 95%
06:00 +26°C° 1.3 mm 2 m/s 759 mmHg 94%
07:00 +27°C° 1.3 mm 2 m/s 759 mmHg 93%
08:00 +28°C° 1.3 mm 2 m/s 760 mmHg 92%
09:00 +28°C° 0.7 mm 3 m/s 760 mmHg 89%
10:00 +29°C° 0.7 mm 3 m/s 760 mmHg 86%
11:00 +30°C° 0.7 mm 3 m/s 760 mmHg 84%
12:00 +30°C° 0.7 mm 3 m/s 759 mmHg 85%
13:00 +29°C° 0.7 mm 3 m/s 759 mmHg 86%
14:00 +29°C° 0.7 mm 3 m/s 758 mmHg 87%
15:00 +29°C° 0.2 mm 3 m/s 758 mmHg 87%
16:00 +29°C° 0.2 mm 3 m/s 758 mmHg 87%
17:00 +29°C° 0.2 mm 3 m/s 758 mmHg 87%
18:00 +28°C° 0.1 mm 3 m/s 758 mmHg 89%
19:00 +27°C° 0.1 mm 3 m/s 759 mmHg 92%
20:00 +26°C° 0.1 mm 3 m/s 759 mmHg 95%
21:00 +26°C° 0.2 mm 3 m/s 759 mmHg 95%
22:00 +26°C° 0.2 mm 3 m/s 760 mmHg 95%
23:00 +26°C° 0.2 mm 3 m/s 760 mmHg 95%

14 Iulie, Marţi

Timp Temperatura Precipitaţii Vânt Presiune Umiditate
00:00 +26°C° 0.3 mm 3 m/s 759 mmHg 95%
01:00 +26°C° 0.3 mm 2 m/s 759 mmHg 94%
02:00 +26°C° 0.3 mm 2 m/s 758 mmHg 94%
03:00 +26°C° 0.2 mm 2 m/s 758 mmHg 94%
04:00 +26°C° 0.2 mm 2 m/s 758 mmHg 94%
05:00 +25°C° 0.2 mm 2 m/s 758 mmHg 94%
06:00 +26°C° 0.3 mm 2 m/s 759 mmHg 92%
07:00 +27°C° 0.3 mm 2 m/s 759 mmHg 90%
08:00 +28°C° 0.3 mm 2 m/s 760 mmHg 89%
09:00 +29°C° 0.5 mm 2 m/s 760 mmHg 86%
10:00 +29°C° 0.5 mm 2 m/s 760 mmHg 83%
11:00 +30°C° 0.5 mm 2 m/s 760 mmHg 81%
12:00 +30°C° 0.5 mm 2 m/s 759 mmHg 78%
13:00 +30°C° 0.5 mm 3 m/s 759 mmHg 75%
14:00 +31°C° 0.5 mm 3 m/s 758 mmHg 72%
15:00 +30°C° 0 mm 3 m/s 758 mmHg 73%
16:00 +30°C° 0 mm 3 m/s 758 mmHg 74%
17:00 +30°C° 0 mm 3 m/s 758 mmHg 74%
18:00 +29°C° 0 mm 3 m/s 758 mmHg 80%
19:00 +27°C° 0 mm 3 m/s 759 mmHg 85%
20:00 +26°C° 0 mm 2 m/s 759 mmHg 90%
21:00 +26°C° 0 mm 2 m/s 759 mmHg 91%
22:00 +26°C° 0 mm 2 m/s 760 mmHg 91%
23:00 +26°C° 0 mm 2 m/s 760 mmHg 92%

15 Iulie, Miercuri

Timp Temperatura Precipitaţii Vânt Presiune Umiditate
00:00 +26°C° 0.2 mm 2 m/s 759 mmHg 92%
01:00 +26°C° 0.2 mm 2 m/s 759 mmHg 93%
02:00 +25°C° 0.2 mm 2 m/s 758 mmHg 93%
03:00 +25°C° 0.1 mm 2 m/s 759 mmHg 93%
04:00 +25°C° 0.1 mm 2 m/s 759 mmHg 93%
05:00 +25°C° 0.1 mm 2 m/s 759 mmHg 93%
06:00 +26°C° 0 mm 2 m/s 759 mmHg 89%
07:00 +28°C° 0 mm 2 m/s 759 mmHg 86%
08:00 +29°C° 0 mm 2 m/s 760 mmHg 82%
09:00 +30°C° 0.4 mm 2 m/s 760 mmHg 79%
10:00 +30°C° 0.4 mm 2 m/s 760 mmHg 76%
11:00 +31°C° 0.4 mm 2 m/s 760 mmHg 72%
12:00 +31°C° 0.5 mm 3 m/s 759 mmHg 71%
13:00 +31°C° 0.5 mm 3 m/s 759 mmHg 70%
14:00 +31°C° 0.5 mm 3 m/s 758 mmHg 69%
15:00 +31°C° 0 mm 3 m/s 758 mmHg 70%
16:00 +30°C° 0 mm 3 m/s 758 mmHg 71%
17:00 +30°C° 0 mm 3 m/s 757 mmHg 72%
18:00 +29°C° 0 mm 3 m/s 758 mmHg 77%
19:00 +28°C° 0 mm 3 m/s 758 mmHg 82%
20:00 +26°C° 0 mm 3 m/s 759 mmHg 88%
21:00 +26°C° 0 mm 3 m/s 759 mmHg 88%
22:00 +26°C° 0 mm 3 m/s 759 mmHg 89%
23:00 +26°C° 0 mm 3 m/s 760 mmHg 90%
Arată mai mult